APRIZESAT 9 (40018 NORAD) Tracking and Keplerian Element Data

This shows tracking and keplerian element data for the satellite.

Feedback or suggestion? Click here.




ElementValue
Catalog40018
NameAPRIZESAT 9
Epoch Orbit23687
Epoch Day323.1811598
Epoch Year2018
RAAN183.0752
Inclination97.7672
Eccentricity0.0072922
Argument of Perigee85.9432
Mean Anonmoly275.0106
Mean Motion14.69899806
Decay Rate3.5E-07
L11 40018U 14033J 18323.18115980 .00000035 00000-0 13479-4 0 9990
L22 40018 97.7672 183.0752 0072922 85.9432 275.0106 14.69899806236879

Live tracking and technical data element details for APRIZESAT 9 (NORAD 40018). APRIZESAT 9 can be tracked NOW for your location showing map with azimuth and elevation plus other details from your city location.

Track the satellite on the map from your city or location and see movement details for azimuth, elevation, latitude, longitude, range, height, and movement on the map or in text.







IsCatalogInMostPopularTable: catalog: 40018, numindb: 93
Update: records affected: 1



GetName: 40018 APRIZESAT 9

Hit Count: updated at: Tue, 20 Nov 2018 01:00:55 GMT